TimeEST,TemperatureF,Dew PointF,Humidity,Sea Level PressureIn,VisibilityMPH,Wind Direction,Wind SpeedMPH,Gust SpeedMPH,PrecipitationIn,Events,Conditions,WindDirDegrees,DateUTC
12:15 AM,19.8,10.0,66,29.99,7.0,West,13.8,25.3,N/A,,Overcast,280,2013-12-13 05:15:00
12:35 AM,19.4,9.7,66,30.00,10.0,West,15.0,27.6,N/A,,Overcast,280,2013-12-13 05:35:00
12:54 AM,19.2,9.5,66,30.00,10.0,West,13.8,21.9,N/A,,Overcast,280,2013-12-13 05:54:00
1:15 AM,19.4,10.0,67,30.00,10.0,West,6.9,21.9,N/A,,Overcast,270,2013-12-13 06:15:00
1:35 AM,19.4,10.2,68,30.01,10.0,West,16.1,21.9,N/A,,Overcast,280,2013-12-13 06:35:00
1:54 AM,19.4,10.0,67,30.02,10.0,WNW,10.4,19.6,N/A,,Overcast,290,2013-12-13 06:54:00
2:15 AM,19.0,9.7,67,30.02,10.0,West,9.2,17.3,N/A,,Overcast,270,2013-12-13 07:15:00
2:34 AM,18.5,9.5,68,30.03,10.0,WNW,10.4,23.0,N/A,,Overcast,290,2013-12-13 07:34:00
2:55 AM,18.5,9.3,67,30.04,10.0,West,13.8,23.0,N/A,,Overcast,270,2013-12-13 07:55:00
3:15 AM,18.5,9.5,68,30.04,10.0,WNW,12.7,21.9,N/A,,Overcast,290,2013-12-13 08:15:00
3:34 AM,18.5,9.1,67,30.05,10.0,West,12.7,20.7,N/A,,Overcast,280,2013-12-13 08:34:00
3:55 AM,18.5,9.5,68,30.06,7.0,WNW,16.1,23.0,N/A,Snow,Light Snow,300,2013-12-13 08:55:00
4:15 AM,17.2,8.6,69,30.07,7.0,WNW,11.5,20.7,N/A,,Overcast,300,2013-12-13 09:15:00
4:34 AM,16.9,7.2,66,30.07,10.0,WNW,9.2,20.7,N/A,,Overcast,290,2013-12-13 09:34:00
4:55 AM,16.3,5.9,64,30.07,10.0,WNW,8.1,19.6,N/A,,Overcast,290,2013-12-13 09:55:00
5:15 AM,16.3,5.4,62,30.08,10.0,WNW,8.1,-,N/A,,Overcast,300,2013-12-13 10:15:00
5:35 AM,15.8,7.7,70,30.09,5.0,NW,9.2,20.7,N/A,Snow,Light Snow,320,2013-12-13 10:35:00
5:55 AM,15.8,7.7,70,30.10,10.0,NNW,5.8,-,N/A,,Overcast,330,2013-12-13 10:55:00
6:14 AM,15.8,7.3,69,30.11,10.0,NNW,6.9,-,N/A,,Overcast,330,2013-12-13 11:14:00
6:35 AM,15.6,4.5,61,30.12,10.0,NW,9.2,17.3,N/A,,Overcast,320,2013-12-13 11:35:00
6:55 AM,14.9,3.7,61,30.13,10.0,WNW,9.2,-,N/A,,Mostly Cloudy,290,2013-12-13 11:55:00
7:14 AM,14.9,3.4,60,30.14,10.0,NW,4.6,-,N/A,,Overcast,310,2013-12-13 12:14:00
7:35 AM,13.1,5.2,71,30.16,7.0,NE,13.8,-,N/A,Snow,Light Snow,40,2013-12-13 12:35:00
7:55 AM,10.0,4.5,78,30.17,5.0,NE,9.2,-,N/A,,Haze,40,2013-12-13 12:55:00
8:14 AM,9.1,3.6,78,30.18,10.0,NE,8.1,-,N/A,,Overcast,50,2013-12-13 13:14:00
8:35 AM,8.6,3.2,79,30.19,10.0,ENE,9.2,-,N/A,,Overcast,60,2013-12-13 13:35:00
8:55 AM,8.8,3.4,79,30.20,10.0,ENE,8.1,-,N/A,,Overcast,70,2013-12-13 13:55:00
9:14 AM,8.4,2.8,78,30.21,10.0,ENE,8.1,-,N/A,,Overcast,60,2013-12-13 14:14:00
9:35 AM,8.4,2.3,76,30.22,10.0,ENE,6.9,-,N/A,,Overcast,70,2013-12-13 14:35:00
9:55 AM,8.6,1.9,74,30.23,10.0,ENE,9.2,-,N/A,,Overcast,70,2013-12-13 14:55:00
10:14 AM,8.6,1.8,74,30.24,10.0,ENE,8.1,-,N/A,,Mostly Cloudy,70,2013-12-13 15:14:00
10:35 AM,8.6,1.4,73,30.24,10.0,ENE,9.2,-,N/A,,Scattered Clouds,60,2013-12-13 15:35:00
10:55 AM,9.0,0.9,70,30.24,10.0,ENE,9.2,-,N/A,,Clear,60,2013-12-13 15:55:00
11:14 AM,9.5,1.8,71,30.24,10.0,ENE,9.2,-,N/A,,Clear,60,2013-12-13 16:14:00
11:35 AM,8.6,1.0,71,30.24,10.0,ESE,11.5,-,N/A,,Clear,110,2013-12-13 16:35:00
11:55 AM,8.4,1.2,73,30.25,10.0,East,8.1,-,N/A,,Scattered Clouds,80,2013-12-13 16:55:00
12:15 PM,8.4,0.5,70,30.24,10.0,East,10.4,-,N/A,,Mostly Cloudy,80,2013-12-13 17:15:00
12:35 PM,8.4,0.3,70,30.24,10.0,ENE,9.2,-,N/A,,Mostly Cloudy,60,2013-12-13 17:35:00
12:55 PM,9.0,0.1,67,30.24,10.0,East,8.1,-,N/A,,Clear,80,2013-12-13 17:55:00
1:15 PM,10.0,0.3,65,30.25,10.0,ENE,8.1,-,N/A,,Scattered Clouds,60,2013-12-13 18:15:00
1:35 PM,10.6,1.4,67,30.25,10.0,East,6.9,-,N/A,,Mostly Cloudy,100,2013-12-13 18:35:00
1:55 PM,10.9,1.4,65,30.26,10.0,East,4.6,-,N/A,,Scattered Clouds,100,2013-12-13 18:55:00
2:15 PM,10.9,1.2,65,30.26,10.0,East,5.8,-,N/A,,Clear,100,2013-12-13 19:15:00
2:35 PM,10.9,1.0,64,30.26,10.0,East,5.8,-,N/A,,Clear,80,2013-12-13 19:35:00
2:54 PM,10.9,1.0,64,30.26,10.0,ENE,6.9,-,N/A,,Clear,60,2013-12-13 19:54:00
3:15 PM,11.3,0.3,61,30.27,10.0,East,6.9,-,N/A,,Mostly Cloudy,80,2013-12-13 20:15:00
3:35 PM,11.1,-0.4,60,30.28,10.0,ENE,8.1,-,N/A,,Overcast,60,2013-12-13 20:35:00
3:54 PM,10.9,-0.4,60,30.27,10.0,ENE,5.8,-,N/A,,Scattered Clouds,60,2013-12-13 20:54:00
4:15 PM,10.4,-0.2,62,30.29,10.0,ENE,5.8,-,N/A,,Scattered Clouds,60,2013-12-13 21:15:00
4:35 PM,8.8,-0.4,66,30.29,10.0,ENE,6.9,-,N/A,,Scattered Clouds,70,2013-12-13 21:35:00
4:54 PM,8.6,-0.4,67,30.30,10.0,NE,6.9,-,N/A,,Scattered Clouds,50,2013-12-13 21:54:00
5:15 PM,8.4,-0.4,67,30.32,10.0,ENE,8.1,-,N/A,,Overcast,60,2013-12-13 22:15:00
5:35 PM,8.4,0.3,70,30.32,10.0,NE,8.1,-,N/A,,Overcast,50,2013-12-13 22:35:00
5:54 PM,8.4,0.5,70,30.33,10.0,East,5.8,-,N/A,,Mostly Cloudy,80,2013-12-13 22:54:00
6:15 PM,7.5,-0.2,71,30.33,10.0,ENE,4.6,-,N/A,,Clear,70,2013-12-13 23:15:00
6:35 PM,6.4,-0.9,72,30.34,10.0,East,4.6,-,N/A,,Clear,80,2013-12-13 23:35:00
6:54 PM,5.9,-1.3,72,30.35,10.0,East,4.6,-,N/A,,Clear,80,2013-12-13 23:54:00
7:15 PM,5.9,-1.5,72,30.35,10.0,NE,5.8,-,N/A,,Clear,50,2013-12-14 00:15:00
7:35 PM,5.9,-1.3,72,30.35,10.0,NE,4.6,-,N/A,,Clear,50,2013-12-14 00:35:00
7:54 PM,5.9,-1.3,72,30.36,10.0,Calm,Calm,-,N/A,,Clear,0,2013-12-14 00:54:00
8:15 PM,5.9,-1.3,72,30.37,10.0,NE,3.5,-,N/A,,Clear,40,2013-12-14 01:15:00
8:35 PM,5.9,-1.5,72,30.37,10.0,NNE,4.6,-,N/A,,Clear,30,2013-12-14 01:35:00
8:54 PM,5.9,-1.3,72,30.37,10.0,NE,3.5,-,N/A,,Clear,40,2013-12-14 01:54:00
9:15 PM,5.9,-1.5,72,30.37,10.0,NE,4.6,-,N/A,,Clear,50,2013-12-14 02:15:00
9:35 PM,5.9,-1.8,70,30.37,10.0,NE,5.8,-,N/A,,Clear,40,2013-12-14 02:35:00
9:54 PM,6.3,-1.7,70,30.37,10.0,ENE,5.8,-,N/A,,Clear,70,2013-12-14 02:54:00
10:15 PM,5.9,-1.7,71,30.37,10.0,Calm,Calm,-,N/A,,Clear,0,2013-12-14 03:15:00
10:35 PM,5.9,-0.8,74,30.37,10.0,East,3.5,-,N/A,,Clear,90,2013-12-14 03:35:00
10:54 PM,4.8,-1.1,76,30.38,10.0,East,4.6,-,N/A,,Clear,80,2013-12-14 03:54:00
11:15 PM,3.2,-2.0,79,30.39,10.0,East,3.5,-,N/A,,Clear,100,2013-12-14 04:15:00
11:35 PM,3.0,-2.0,80,30.39,10.0,ENE,3.5,-,N/A,,Clear,60,2013-12-14 04:35:00
11:54 PM,3.0,-2.0,80,30.39,10.0,ENE,4.6,-,N/A,,Clear,60,2013-12-14 04:54:00